Weather History for Hutchinson, MN

Change the Weather History Date:

Sunday, October 16, 2011

  Actual Average Record
Temperature  
Mean Temperature 48 °F -  
Max Temperature 57 °F 57 °F 82 °F (1961)
Min Temperature 39 °F 34 °F 1 °F (2004)
Degree Days  
Heating Degree Days 17    
Moisture  
Dew Point 37 °F    
Average Humidity 67    
Maximum Humidity 93    
Minimum Humidity 37    
Precipitation  
Precipitation 0.00 in - - ()
Sea Level Pressure  
Sea Level Pressure 29.87 in    
Wind  
Wind Speed 11 mph (West)    
Max Wind Speed 28 mph    
Max Gust Speed 33 mph    
Visibility 10 miles    
Events      
Averages and records for this station are not official NWS values.
T = Trace of Precipitation, MM = Missing Value Source: NWS Daily Summary

Daily Weather History Graph

Daily Weather History Graph

Search for Another Location

Airport:

Trip Planner

Search our weather history database for the weather conditions in past years. The results will help you decide how hot, cold, wet, or windy it might be!

Date:

Astronomy

Oct. 16, 2011 Rise Set
Actual Time 7:34 AM CDT 6:31 PM CDT
Civil Twilight 7:04 AM CDT 7:00 PM CDT
Nautical Twilight 6:30 AM CDT 7:34 PM CDT
Astronomical Twilight 5:56 AM CDT 8:08 PM CDT
Moon 9:06 PM CDT (10/16) 12:03 PM CDT (10/16)
Length of Visible Light 11h 56m
Length of Day
10h 57m
Waning Gibbous, 82% of the Moon is Illuminated
Oct 16
Waning Gibbous
Oct 19
Last Quarter
Oct 26
New
Nov 2
First Quarter
Nov 10
Full

Hourly Weather History & Observations

Time (CDT) Temp. Windchill Dew Point Humidity Pressure Visibility Wind Dir Wind Speed Gust Speed Precip Events Conditions
12:13 AM 49.5 °F - 42.3 °F 76% 29.84 in 10.0 mi West 4.6 mph - N/A   Overcast
12:33 AM 49.5 °F - 43.0 °F 78% 29.84 in 10.0 mi WSW 4.6 mph - N/A   Overcast
12:53 AM 49.5 °F - 43.9 °F 81% 29.84 in 10.0 mi WSW 3.5 mph - N/A   Overcast
1:13 AM 49.5 °F - 44.1 °F 82% 29.85 in 10.0 mi WSW 5.8 mph - N/A   Overcast
1:33 AM 49.5 °F - 44.8 °F 84% 29.84 in 10.0 mi West 4.6 mph - N/A   Overcast
1:53 AM 49.5 °F - 44.1 °F 82% 29.84 in 10.0 mi West 4.6 mph - N/A   Overcast
2:12 AM 49.5 °F - 44.2 °F 82% 29.84 in 10.0 mi West 5.8 mph - N/A   Overcast
2:33 AM 46.9 °F - 43.0 °F 86% 29.84 in 10.0 mi WSW 4.6 mph - N/A   Overcast
2:52 AM 46.0 °F 43.1 °F 42.8 °F 88% 29.85 in 10.0 mi West 5.8 mph - N/A   Overcast
3:13 AM 44.6 °F 40.7 °F 41.0 °F 87% 29.85 in 10.0 mi West 6.9 mph - N/A   Overcast
3:52 AM 44.2 °F 40.3 °F 39.9 °F 85% 29.84 in 10.0 mi West 6.9 mph - N/A   Scattered Clouds
4:13 AM 43.2 °F 39.7 °F 39.2 °F 86% 29.84 in 10.0 mi West 5.8 mph - N/A   Clear
4:32 AM 43.2 °F 38.4 °F 39.6 °F 87% 29.84 in 10.0 mi West 8.1 mph - N/A   Clear
4:53 AM 42.6 °F 37.8 °F 39.0 °F 87% 29.85 in 10.0 mi West 8.1 mph - N/A   Clear
5:13 AM 41.9 °F 36.9 °F 38.8 °F 89% 29.85 in 10.0 mi West 8.1 mph - N/A   Clear
5:32 AM 40.6 °F 34.8 °F 37.9 °F 90% 29.85 in 10.0 mi West 9.2 mph - N/A   Clear
5:53 AM 40.6 °F 34.8 °F 38.3 °F 91% 29.86 in 10.0 mi West 9.2 mph - N/A   Clear
6:12 AM 40.8 °F 35.0 °F 38.5 °F 91% 29.86 in 10.0 mi West 9.2 mph - N/A   Clear
6:33 AM 39.6 °F 33.5 °F 37.4 °F 92% 29.87 in 10.0 mi West 9.2 mph - N/A   Clear
6:52 AM 39.4 °F 33.8 °F 37.4 °F 93% 29.87 in 10.0 mi West 8.1 mph - N/A   Clear
7:13 AM 39.4 °F 33.8 °F 37.4 °F 93% 29.88 in 10.0 mi West 8.1 mph - N/A   Clear
7:32 AM 39.4 °F 32.7 °F 37.6 °F 93% 29.88 in 10.0 mi West 10.4 mph - N/A   Clear
7:53 AM 39.4 °F 34.5 °F 37.6 °F 93% 29.88 in 10.0 mi West 6.9 mph - N/A   Clear
8:12 AM 41.4 °F 35.2 °F 39.6 °F 93% 29.88 in 10.0 mi West 10.4 mph - N/A   Mostly Cloudy
8:33 AM 41.9 °F 36.9 °F 39.2 °F 90% 29.88 in 10.0 mi West 8.1 mph - N/A   Mostly Cloudy
8:52 AM 43.0 °F 36.4 °F 39.6 °F 88% 29.88 in 10.0 mi West 12.7 mph 17.3 mph N/A   Scattered Clouds
9:13 AM 44.4 °F 37.5 °F 39.6 °F 83% 29.89 in 10.0 mi West 15.0 mph 19.6 mph N/A   Scattered Clouds
9:33 AM 46.4 °F 40.4 °F 41.4 °F 83% 29.90 in 10.0 mi West 13.8 mph 17.3 mph N/A   Scattered Clouds
9:52 AM 49.5 °F - 43.5 °F 80% 29.90 in 10.0 mi West 15.0 mph 20.7 mph N/A   Scattered Clouds
10:13 AM 49.5 °F - 41.4 °F 74% 29.90 in 10.0 mi West 13.8 mph 19.6 mph N/A   Clear
10:32 AM 49.5 °F - 40.5 °F 71% 29.90 in 10.0 mi WNW 16.1 mph 24.2 mph N/A   Clear
10:53 AM 51.8 °F - 41.0 °F 67% 29.89 in 10.0 mi West 18.4 mph 21.9 mph N/A   Clear
11:12 AM 53.6 °F - 40.1 °F 60% 29.90 in 10.0 mi West 16.1 mph 25.3 mph N/A   Clear
11:33 AM 54.5 °F - 39.2 °F 56% 29.89 in 10.0 mi West 16.1 mph 25.3 mph N/A   Clear
11:53 AM 54.5 °F - 37.6 °F 53% 29.89 in 10.0 mi West 19.6 mph 29.9 mph N/A   Clear
12:12 PM 54.5 °F - 35.4 °F 49% 29.89 in 10.0 mi NW 19.6 mph 31.1 mph N/A   Clear
12:33 PM 55.8 °F - 34.2 °F 44% 29.89 in 10.0 mi West 21.9 mph 32.2 mph N/A   Clear
12:53 PM 57.2 °F - 35.1 °F 43% 29.89 in 10.0 mi West 20.7 mph 32.2 mph N/A   Clear
1:12 PM 57.2 °F - 35.4 °F 44% 29.89 in 10.0 mi WNW 19.6 mph 33.4 mph N/A   Clear
1:33 PM 57.2 °F - 34.3 °F 42% 29.88 in 10.0 mi WNW 19.6 mph 33.4 mph N/A   Clear
1:53 PM 57.2 °F - 33.1 °F 40% 29.87 in 10.0 mi West 27.6 mph 33.4 mph N/A   Clear
2:13 PM 57.2 °F - 32.7 °F 40% 29.88 in 10.0 mi West 19.6 mph 29.9 mph N/A   Clear
2:33 PM 57.2 °F - 32.9 °F 40% 29.87 in 10.0 mi West 23.0 mph 31.1 mph N/A   Clear
2:52 PM 57.2 °F - 32.4 °F 39% 29.88 in 10.0 mi West 18.4 mph 29.9 mph N/A   Clear
3:13 PM 57.2 °F - 32.2 °F 39% 29.88 in 10.0 mi WNW 18.4 mph 29.9 mph N/A   Clear
3:33 PM 57.2 °F - 31.1 °F 37% 29.88 in 10.0 mi WNW 21.9 mph 32.2 mph N/A   Clear
3:53 PM 57.2 °F - 31.8 °F 38% 29.87 in 10.0 mi West 23.0 mph 33.4 mph N/A   Clear
4:12 PM 57.2 °F - 31.1 °F 37% 29.87 in 10.0 mi West 24.2 mph 33.4 mph N/A   Clear
4:33 PM 56.3 °F - 31.6 °F 39% 29.88 in 10.0 mi WNW 18.4 mph 27.6 mph N/A   Clear
4:53 PM 54.9 °F - 30.9 °F 40% 29.87 in 10.0 mi West 23.0 mph 28.8 mph N/A   Clear
5:13 PM 54.5 °F - 31.3 °F 41% 29.87 in 10.0 mi WNW 21.9 mph 31.1 mph N/A   Clear
5:33 PM 54.5 °F - 31.8 °F 42% 29.88 in 10.0 mi West 23.0 mph 32.2 mph N/A   Clear
5:53 PM 54.5 °F - 32.4 °F 43% 29.87 in 10.0 mi West 25.3 mph 32.2 mph N/A   Clear
6:13 PM 52.0 °F - 31.6 °F 46% 29.88 in 10.0 mi West 18.4 mph 25.3 mph N/A   Clear
6:32 PM 50.7 °F - 32.0 °F 49% 29.88 in 10.0 mi West 17.3 mph 25.3 mph N/A   Clear
6:53 PM 49.5 °F - 32.0 °F 51% 29.88 in 10.0 mi West 13.8 mph 20.7 mph N/A   Clear
7:13 PM 49.5 °F - 32.2 °F 51% 29.88 in 10.0 mi West 16.1 mph 21.9 mph N/A   Clear
7:33 PM 49.5 °F - 33.3 °F 54% 29.88 in 10.0 mi West 15.0 mph 21.9 mph N/A   Clear
7:53 PM 49.5 °F - 34.2 °F 56% 29.89 in 10.0 mi West 13.8 mph 18.4 mph N/A   Clear
8:12 PM 49.3 °F - 34.3 °F 56% 29.88 in 10.0 mi West 13.8 mph - N/A   Clear
8:33 PM 43.3 °F 38.1 °F 32.0 °F 64% 29.89 in 10.0 mi West 9.2 mph - N/A   Clear
8:52 PM 43.2 °F 37.9 °F 32.2 °F 65% 29.89 in 10.0 mi WSW 9.2 mph - N/A   Clear
9:13 PM 42.4 °F 36.5 °F 32.0 °F 67% 29.89 in 10.0 mi West 10.4 mph - N/A   Clear
9:33 PM 41.9 °F 36.3 °F 32.7 °F 70% 29.90 in 10.0 mi West 9.2 mph - N/A   Clear
9:52 PM 41.4 °F 35.2 °F 32.5 °F 71% 29.90 in 10.0 mi West 10.4 mph - N/A   Clear
10:13 PM 40.6 °F 33.8 °F 32.2 °F 72% 29.90 in 10.0 mi West 11.5 mph - N/A   Clear
10:33 PM 41.0 °F 34.3 °F 32.4 °F 71% 29.90 in 10.0 mi West 11.5 mph - N/A   Clear
10:53 PM 40.6 °F 34.3 °F 32.7 °F 73% 29.90 in 10.0 mi West 10.4 mph - N/A   Clear
11:12 PM 39.4 °F 33.2 °F 32.2 °F 75% 29.90 in 10.0 mi WSW 9.2 mph - N/A   Clear
11:33 PM 39.9 °F 32.9 °F 32.7 °F 75% 29.90 in 10.0 mi West 11.5 mph - N/A   Clear
11:53 PM 39.4 °F 32.7 °F 32.2 °F 75% 29.90 in 10.0 mi West 10.4 mph - N/A   Clear